Location: Hartman Creek State Park
(44.3257°N, 89.2134°W)
Time: 08:16:05
(UTC-05:00)

Cosmos 2263 Rocket - Visible Passes

Search period start: 22 September 2017 00:00
Search period end: 02 October 2017 00:00
Orbit: 822 x 850 km, 71.0° (Epoch: 21 September)

Date Brightness Start Highest point End Pass type
(mag) Time Alt. Az. Time Alt. Az. Time Alt. Az.
22 Sep 3.6 04:11:24 19° SSE 04:14:42 35° ESE 04:19:49 10° NE visible
22 Sep 2.8 05:53:16 10° SW 05:58:33 39° NW 06:03:53 10° NNE visible
23 Sep 3.6 03:55:52 25° SE 03:58:01 32° ESE 04:03:01 10° NE visible
23 Sep 2.7 05:37:36 16° WSW 05:41:48 41° WNW 05:47:12 10° NNE visible
24 Sep 3.7 03:40:13 28° SE 03:41:20 30° ESE 03:46:12 10° NE visible
24 Sep 2.6 05:21:57 24° WSW 05:25:03 44° WNW 05:30:31 10° NNE visible
25 Sep 3.8 03:24:29 27° ESE 03:24:39 27° ESE 03:29:23 10° NE visible
25 Sep 2.5 05:06:13 33° WSW 05:08:18 48° WNW 05:13:50 10° NNE visible
26 Sep 4.0 03:08:41 25° E 03:08:41 25° E 03:12:33 10° NE visible
26 Sep 2.4 04:50:25 45° W 04:51:34 52° WNW 04:57:08 10° NNE visible
27 Sep 4.3 02:52:49 21° E 02:52:49 21° E 02:55:42 10° NE visible
27 Sep 2.3 04:34:32 55° WNW 04:34:49 56° WNW 04:40:26 10° NNE visible
27 Sep 4.1 06:17:57 10° WNW 06:20:05 12° NW 06:22:14 10° NNW visible
28 Sep 4.6 02:36:53 17° ENE 02:36:53 17° ENE 02:38:50 10° NE visible
28 Sep 2.4 04:18:36 57° NW 04:18:36 57° NW 04:23:44 10° NNE visible
28 Sep 4.1 06:00:47 10° WNW 06:03:16 13° NW 06:05:46 10° NNW visible
29 Sep 4.8 02:20:54 14° ENE 02:20:54 14° ENE 02:21:57 10° NE visible
29 Sep 2.7 04:02:37 50° N 04:02:37 50° N 04:07:02 10° NNE visible
29 Sep 4.1 05:44:20 11° WNW 05:46:27 14° NW 05:49:14 10° N visible
30 Sep 5.0 02:04:52 11° ENE 02:04:52 11° ENE 02:05:03 10° ENE visible
30 Sep 3.2 03:46:35 41° N 03:46:35 41° N 03:50:19 10° NNE visible
30 Sep 4.0 05:28:18 13° WNW 05:29:38 14° NW 05:32:42 10° N visible
01 Oct 3.6 03:30:31 33° NNE 03:30:31 33° NNE 03:33:37 10° NNE visible
01 Oct 4.0 05:12:14 15° NW 05:12:50 15° NW 05:16:08 10° N visible
